Terug naar catalogus

FOREST-18 MANGOSHRIKHAND

ActiefWetenschapSSO
NORAD 68999·PAYLOAD·🇬🇷 Greece

Gelanceerd May 3, 2026 vanaf Vandenberg Space Force Base

Loading…

Volgende Passages (komende 24 uur)

TLE

VersSource: Space-Track

Epoch: Sep 14, 2026, 10:11 UTC

1 68999U 26100V   26257.42444204  .00000799  00000-0  82422-4 0  9993
2 68999  97.7197 153.2425 0000734  60.3742 299.7550 14.92906025 20019

Volg FOREST-18 MANGOSHRIKHAND in realtime met AllMySat

Download on the App Store